| time (UTC) | temp F | wind direction | speed MPH | gust MPH | rain 1hr in | rain 24hr in | rain mn in | humidity % | barometer mb |
| 20260507181909 | 46 | 330 | 2.0 | 0.0 | 0.00 | 0.00 | 0.00 | 99 | |
| 20260507171910 | 48 | 310 | 5.0 | 0.0 | 0.00 | 0.00 | 0.00 | 93 | |
| 20260507162211 | 48 | 290 | 9.0 | 0.0 | 0.00 | 0.00 | 0.00 | 99 | |
| 20260507151909 | 50 | 290 | 9.0 | 0.0 | 0.00 | 0.00 | 0.00 | 93 | |
| 20260507141910 | 50 | 290 | 9.0 | 0.0 | 0.00 | 0.00 | 0.00 | 99 | |
| 20260507132024 | 52 | 290 | 9.0 | 0.0 | 0.00 | 0.00 | 0.00 | 93 | |
| 20260507121909 | 52 | 300 | 5.0 | 0.0 | 0.00 | 0.00 | 0.00 | 93 | |
| 20260507111910 | 50 | 290 | 5.0 | 0.0 | 0.00 | 0.00 | 0.00 | 99 | |
| 20260507102109 | 50 | 300 | 5.0 | 0.0 | 0.00 | 0.00 | 0.00 | 99 | |
| 20260507091910 | 50 | 310 | 2.0 | 0.0 | 0.00 | 0.00 | 0.00 | 93 | |
| 20260507081909 | 52 | 300 | 5.0 | 0.0 | 0.00 | 0.00 | 0.00 | 87 | |
| 20260507071909 | 50 | 320 | 2.0 | 0.0 | 0.00 | 0.00 | 0.00 | 93 | |
| 20260507061909 | 50 | 290 | 5.0 | 0.0 | 0.00 | 0.00 | 0.00 | 93 | |
| 20260507051909 | 48 | 300 | 2.0 | 0.0 | 0.00 | 0.00 | 0.00 | 99 | |
| 20260507042113 | 50 | 300 | 7.0 | 0.0 | 0.00 | 0.00 | 0.00 | 93 | |
| 20260507031909 | 50 | 290 | 9.0 | 0.0 | 0.00 | 0.00 | 0.00 | 99 | |
| 20260507021909 | 52 | 280 | 2.0 | 0.0 | 0.00 | 0.00 | 0.00 | 93 | |
| 20260507012018 | 54 | 350 | 2.0 | 0.0 | 0.00 | 0.00 | 0.00 | 93 | |
| 20260507001909 | 54 | 310 | 2.0 | 0.0 | 0.00 | 0.00 | 0.00 | 93 | |
| 20260506231909 | 54 | 0 | 0.0 | 0.0 | 0.00 | 0.00 | 0.00 | 93 | |
| 20260506222108 | 55 | 270 | 7.0 | 0.0 | 0.00 | 0.00 | 0.00 | 87 | |
| 20260506211909 | 55 | 310 | 5.0 | 0.0 | 0.00 | 0.00 | 0.00 | 87 | |
| 20260506201941 | 59 | 310 | 5.0 | 0.0 | 0.00 | 0.00 | 0.00 | 77 | |
| 20260506192100 | 59 | 60 | 2.0 | 0.0 | 0.00 | 0.00 | 0.00 | 72 |